Time,TemperatureF,DewpointF,PressureIn,WindDirection,WindDirectionDegrees,WindSpeedMPH,WindSpeedGustMPH,Humidity,HourlyPrecipIn,Conditions,Clouds,dailyrainin,SoftwareType,DateUTC
2013-11-10 00:11:00,48.9,34.8,29.95,SSW,202,4.7,-999.0,58,-99.99,,,0.00,Acu-Link.com,2013-11-10 05:11:00,
2013-11-10 00:26:00,48.7,35.0,29.94,SSW,202,5.3,-999.0,59,-99.99,,,0.00,Acu-Link.com,2013-11-10 05:26:00,
2013-11-10 00:41:00,48.7,35.0,29.94,WSW,247,4.7,-999.0,59,-99.99,,,0.00,Acu-Link.com,2013-11-10 05:41:00,
2013-11-10 00:56:00,48.6,35.4,29.95,West,270,5.8,-999.0,60,-99.99,,,0.00,Acu-Link.com,2013-11-10 05:56:00,
2013-11-10 01:11:00,48.4,35.2,29.94,SW,225,4.2,-999.0,60,-99.99,,,0.00,Acu-Link.com,2013-11-10 06:11:00,
2013-11-10 01:27:00,48.0,35.2,29.95,SW,225,3.7,-999.0,61,-99.99,,,0.00,Acu-Link.com,2013-11-10 06:27:00,
2013-11-10 01:42:00,48.2,35.4,29.95,SSW,202,4.2,-999.0,61,-99.99,,,0.00,Acu-Link.com,2013-11-10 06:42:00,
2013-11-10 01:57:00,48.0,35.6,29.96,SSW,202,5.8,-999.0,62,-99.99,,,0.00,Acu-Link.com,2013-11-10 06:57:00,
2013-11-10 02:12:00,47.5,35.1,29.96,West,270,4.2,-999.0,62,-99.99,,,0.00,Acu-Link.com,2013-11-10 07:12:00,
2013-11-10 02:27:00,46.9,35.0,29.96,WSW,247,3.7,-999.0,63,-99.99,,,0.00,Acu-Link.com,2013-11-10 07:27:00,
2013-11-10 02:42:00,46.8,34.9,29.96,WSW,247,6.3,-999.0,63,-99.99,,,0.00,Acu-Link.com,2013-11-10 07:42:00,
2013-11-10 02:58:00,46.6,35.1,29.97,SW,225,3.7,-999.0,64,-99.99,,,0.00,Acu-Link.com,2013-11-10 07:58:00,
2013-11-10 03:13:00,46.2,34.7,29.97,WSW,247,4.7,-999.0,64,-99.99,,,0.00,Acu-Link.com,2013-11-10 08:13:00,
2013-11-10 03:28:00,46.4,35.3,29.98,West,270,5.8,-999.0,65,-99.99,,,0.00,Acu-Link.com,2013-11-10 08:28:00,
2013-11-10 03:44:00,46.2,35.1,29.98,WSW,247,4.7,-999.0,65,-99.99,,,0.00,Acu-Link.com,2013-11-10 08:44:00,
2013-11-10 03:59:00,46.0,35.3,29.98,SW,225,4.2,-999.0,66,-99.99,,,0.00,Acu-Link.com,2013-11-10 08:59:00,
2013-11-10 04:14:00,45.9,35.6,29.98,SW,225,2.7,-999.0,67,-99.99,,,0.00,Acu-Link.com,2013-11-10 09:14:00,
2013-11-10 04:29:00,45.9,35.9,29.99,SSW,202,5.8,-999.0,68,-99.99,,,0.00,Acu-Link.com,2013-11-10 09:29:00,
2013-11-10 04:44:00,45.3,35.7,29.99,NNE,22,6.3,-999.0,69,-99.99,,,0.00,Acu-Link.com,2013-11-10 09:44:00,
2013-11-10 05:00:00,45.0,35.8,29.99,WSW,247,4.2,-999.0,70,-99.99,,,0.00,Acu-Link.com,2013-11-10 10:00:00,
2013-11-10 05:15:00,45.1,35.9,29.99,SW,225,3.7,-999.0,70,-99.99,,,0.00,Acu-Link.com,2013-11-10 10:15:00,
2013-11-10 05:30:00,45.1,36.3,29.99,SSW,202,3.2,-999.0,71,-99.99,,,0.00,Acu-Link.com,2013-11-10 10:30:00,
2013-11-10 05:46:00,44.6,36.1,30.00,SW,225,3.7,-999.0,72,-99.99,,,0.00,Acu-Link.com,2013-11-10 10:46:00,
2013-11-10 06:01:00,44.6,36.1,30.00,West,270,2.2,-999.0,72,-99.99,,,0.00,Acu-Link.com,2013-11-10 11:01:00,
2013-11-10 06:16:00,44.6,36.5,30.00,SSW,202,2.7,-999.0,73,-99.99,,,0.00,Acu-Link.com,2013-11-10 11:16:00,
2013-11-10 06:31:00,44.4,36.6,30.01,SW,225,4.7,-999.0,74,-99.99,,,0.00,Acu-Link.com,2013-11-10 11:31:00,
2013-11-10 06:46:00,44.1,36.4,30.02,WSW,247,2.7,-999.0,74,-99.99,,,0.00,Acu-Link.com,2013-11-10 11:46:00,
2013-11-10 07:02:00,43.9,36.5,30.02,WSW,247,2.7,-999.0,75,-99.99,,,0.00,Acu-Link.com,2013-11-10 12:02:00,
2013-11-10 07:17:00,43.9,36.8,30.03,SSE,157,3.2,-999.0,76,-99.99,,,0.00,Acu-Link.com,2013-11-10 12:17:00,
2013-11-10 07:32:00,43.2,36.2,30.04,West,270,3.7,-999.0,76,-99.99,,,0.00,Acu-Link.com,2013-11-10 12:32:00,
2013-11-10 07:48:00,43.3,36.6,30.05,West,270,4.7,-999.0,77,-99.99,,,0.00,Acu-Link.com,2013-11-10 12:48:00,
2013-11-10 08:03:00,43.9,36.5,30.06,WSW,247,2.2,-999.0,75,-99.99,,,0.00,Acu-Link.com,2013-11-10 13:03:00,
2013-11-10 08:18:00,44.1,36.7,30.07,West,270,4.7,-999.0,75,-99.99,,,0.00,Acu-Link.com,2013-11-10 13:18:00,
2013-11-10 08:33:00,44.8,37.4,30.07,SW,225,4.2,-999.0,75,-99.99,,,0.00,Acu-Link.com,2013-11-10 13:33:00,
2013-11-10 08:48:00,45.3,37.5,30.08,WNW,292,2.7,-999.0,74,-99.99,,,0.00,Acu-Link.com,2013-11-10 13:48:00,
2013-11-10 09:04:00,45.7,37.5,30.08,NNW,337,4.7,-999.0,73,-99.99,,,0.00,Acu-Link.com,2013-11-10 14:04:00,
2013-11-10 09:19:00,46.8,37.9,30.08,SW,225,3.7,-999.0,71,-99.99,,,0.00,Acu-Link.com,2013-11-10 14:19:00,
2013-11-10 09:34:00,47.1,36.7,30.09,SW,225,1.7,-999.0,67,-99.99,,,0.00,Acu-Link.com,2013-11-10 14:34:00,
2013-11-10 09:49:00,47.7,36.1,30.09,South,180,2.7,-999.0,64,-99.99,,,0.00,Acu-Link.com,2013-11-10 14:49:00,
2013-11-10 10:04:00,48.4,36.4,30.09,SSW,202,2.2,-999.0,63,-99.99,,,0.00,Acu-Link.com,2013-11-10 15:04:00,
2013-11-10 10:19:00,48.4,33.4,30.10,NNE,22,5.8,-999.0,56,-99.99,,,0.00,Acu-Link.com,2013-11-10 15:19:00,
2013-11-10 10:34:00,49.1,34.1,30.10,West,270,3.2,-999.0,56,-99.99,,,0.00,Acu-Link.com,2013-11-10 15:34:00,
2013-11-10 10:49:00,49.6,33.6,30.10,ESE,112,4.7,-999.0,54,-99.99,,,0.00,Acu-Link.com,2013-11-10 15:49:00,
2013-11-10 11:04:00,49.6,33.2,30.11,SW,225,3.7,-999.0,53,-99.99,,,0.00,Acu-Link.com,2013-11-10 16:04:00,
2013-11-10 11:20:00,50.5,33.1,30.11,NE,45,2.2,-999.0,51,-99.99,,,0.00,Acu-Link.com,2013-11-10 16:20:00,
2013-11-10 11:35:00,50.9,32.9,30.11,ESE,112,3.2,-999.0,50,-99.99,,,0.00,Acu-Link.com,2013-11-10 16:35:00,
2013-11-10 11:50:00,51.1,32.1,30.11,NNW,337,4.2,-999.0,48,-99.99,,,0.00,Acu-Link.com,2013-11-10 16:50:00,
2013-11-10 12:05:00,51.6,31.5,30.10,NNE,22,3.2,-999.0,46,-99.99,,,0.00,Acu-Link.com,2013-11-10 17:05:00,
2013-11-10 12:21:00,51.3,29.0,30.10,NNE,22,6.3,-999.0,42,-99.99,,,0.00,Acu-Link.com,2013-11-10 17:21:00,
2013-11-10 12:36:00,52.2,30.4,30.10,North,0,4.2,-999.0,43,-99.99,,,0.00,Acu-Link.com,2013-11-10 17:36:00,
2013-11-10 12:51:00,52.2,29.8,30.09,NE,45,5.8,-999.0,42,-99.99,,,0.00,Acu-Link.com,2013-11-10 17:51:00,
2013-11-10 13:07:00,51.8,28.3,30.09,NE,45,4.7,-999.0,40,-99.99,,,0.00,Acu-Link.com,2013-11-10 18:07:00,
2013-11-10 13:22:00,51.8,28.3,30.08,SW,225,4.2,-999.0,40,-99.99,,,0.00,Acu-Link.com,2013-11-10 18:22:00,
2013-11-10 13:37:00,52.0,27.8,30.08,WNW,292,3.7,-999.0,39,-99.99,,,0.00,Acu-Link.com,2013-11-10 18:37:00,
2013-11-10 13:52:00,52.2,27.4,30.08,NNW,337,4.2,-999.0,38,-99.99,,,0.00,Acu-Link.com,2013-11-10 18:52:00,
2013-11-10 14:08:00,52.0,27.2,30.08,West,270,3.2,-999.0,38,-99.99,,,0.00,Acu-Link.com,2013-11-10 19:08:00,
2013-11-10 14:23:00,52.3,26.8,30.08,North,0,4.2,-999.0,37,-99.99,,,0.00,Acu-Link.com,2013-11-10 19:23:00,
2013-11-10 14:38:00,53.1,28.2,30.08,ESE,112,4.7,-999.0,38,-99.99,,,0.00,Acu-Link.com,2013-11-10 19:38:00,
2013-11-10 14:54:00,52.5,27.0,30.07,East,90,2.7,-999.0,37,-99.99,,,0.00,Acu-Link.com,2013-11-10 19:54:00,
2013-11-10 15:09:00,52.7,26.5,30.07,South,180,1.7,-999.0,36,-99.99,,,0.00,Acu-Link.com,2013-11-10 20:09:00,
2013-11-10 15:24:00,52.9,26.0,30.07,NE,45,2.2,-999.0,35,-99.99,,,0.00,Acu-Link.com,2013-11-10 20:24:00,
2013-11-10 15:40:00,52.9,26.7,30.07,West,270,5.8,-999.0,36,-99.99,,,0.00,Acu-Link.com,2013-11-10 20:40:00,
2013-11-10 15:55:00,52.9,25.3,30.08,ESE,112,3.2,-999.0,34,-99.99,,,0.00,Acu-Link.com,2013-11-10 20:55:00,
2013-11-10 16:10:00,53.4,27.1,30.08,WSW,247,2.2,-999.0,36,-99.99,,,0.00,Acu-Link.com,2013-11-10 21:10:00,
2013-11-10 16:25:00,52.7,25.8,30.08,SW,225,3.7,-999.0,35,-99.99,,,0.00,Acu-Link.com,2013-11-10 21:25:00,
2013-11-10 16:40:00,52.5,27.0,30.09,NNW,337,2.2,-999.0,37,-99.99,,,0.00,Acu-Link.com,2013-11-10 21:40:00,
2013-11-10 16:56:00,52.3,26.2,30.09,SSW,202,1.7,-999.0,36,-99.99,,,0.00,Acu-Link.com,2013-11-10 21:56:00,
2013-11-10 17:11:00,50.9,25.6,30.09,East,90,2.7,-999.0,37,-99.99,,,0.00,Acu-Link.com,2013-11-10 22:11:00,
2013-11-10 17:26:00,49.3,26.0,30.09,WSW,247,0.0,-999.0,40,-99.99,,,0.00,Acu-Link.com,2013-11-10 22:26:00,
2013-11-10 17:41:00,47.5,26.1,30.09,SW,225,0.0,-999.0,43,-99.99,,,0.00,Acu-Link.com,2013-11-10 22:41:00,
2013-11-10 17:57:00,45.9,25.8,30.09,West,270,0.0,-999.0,45,-99.99,,,0.00,Acu-Link.com,2013-11-10 22:57:00,
2013-11-10 18:12:00,44.6,26.1,30.10,East,90,0.0,-999.0,48,-99.99,,,0.00,Acu-Link.com,2013-11-10 23:12:00,
2013-11-10 18:27:00,43.0,27.5,30.10,WNW,292,0.0,-999.0,54,-99.99,,,0.00,Acu-Link.com,2013-11-10 23:27:00,
2013-11-10 18:42:00,42.3,26.9,30.10,SW,225,0.0,-999.0,54,-99.99,,,0.00,Acu-Link.com,2013-11-10 23:42:00,
2013-11-10 18:58:00,41.5,27.4,30.10,WNW,292,0.0,-999.0,57,-99.99,,,0.00,Acu-Link.com,2013-11-10 23:58:00,
2013-11-10 19:13:00,40.5,28.5,30.10,West,270,0.0,-999.0,62,-99.99,,,0.00,Acu-Link.com,2013-11-11 00:13:00,
2013-11-10 19:28:00,40.1,29.3,30.11,NNW,337,0.0,-999.0,65,-99.99,,,0.00,Acu-Link.com,2013-11-11 00:28:00,
2013-11-10 19:44:00,39.9,27.2,30.11,NW,315,0.0,-999.0,60,-99.99,,,0.00,Acu-Link.com,2013-11-11 00:44:00,
2013-11-10 19:59:00,39.6,27.3,30.12,NNE,22,0.0,-999.0,61,-99.99,,,0.00,Acu-Link.com,2013-11-11 00:59:00,
2013-11-10 20:14:00,39.0,27.1,30.12,NE,45,0.0,-999.0,62,-99.99,,,0.00,Acu-Link.com,2013-11-11 01:14:00,
2013-11-10 20:30:00,38.5,27.0,30.12,NW,315,0.0,-999.0,63,-99.99,,,0.00,Acu-Link.com,2013-11-11 01:30:00,
2013-11-10 20:45:00,37.6,26.5,30.11,NW,315,0.0,-999.0,64,-99.99,,,0.00,Acu-Link.com,2013-11-11 01:45:00,
2013-11-10 21:00:00,36.9,26.6,30.11,ENE,67,0.0,-999.0,66,-99.99,,,0.00,Acu-Link.com,2013-11-11 02:00:00,
2013-11-10 21:16:00,36.5,27.0,30.12,South,180,0.0,-999.0,68,-99.99,,,0.00,Acu-Link.com,2013-11-11 02:16:00,
2013-11-10 21:31:00,35.4,26.9,30.12,NW,315,0.0,-999.0,71,-99.99,,,0.00,Acu-Link.com,2013-11-11 02:31:00,
2013-11-10 21:46:00,34.7,26.9,30.12,West,270,0.0,-999.0,73,-99.99,,,0.00,Acu-Link.com,2013-11-11 02:46:00,
2013-11-10 22:01:00,34.5,27.1,30.12,South,180,0.0,-999.0,74,-99.99,,,0.00,Acu-Link.com,2013-11-11 03:01:00,
2013-11-10 22:17:00,34.3,26.6,30.13,WNW,292,0.0,-999.0,73,-99.99,,,0.00,Acu-Link.com,2013-11-11 03:17:00,
2013-11-10 22:32:00,33.6,26.9,30.12,WSW,247,0.0,-999.0,76,-99.99,,,0.00,Acu-Link.com,2013-11-11 03:32:00,
2013-11-10 22:47:00,33.1,26.7,30.12,West,270,0.0,-999.0,77,-99.99,,,0.00,Acu-Link.com,2013-11-11 03:47:00,
2013-11-10 23:03:00,32.9,26.5,30.12,SSW,202,0.0,-999.0,77,-99.99,,,0.00,Acu-Link.com,2013-11-11 04:03:00,
2013-11-10 23:18:00,32.4,26.3,30.12,East,90,0.0,-999.0,78,-99.99,,,0.00,Acu-Link.com,2013-11-11 04:18:00,
2013-11-10 23:33:00,31.8,26.0,30.11,East,90,0.0,-999.0,79,-99.99,,,0.00,Acu-Link.com,2013-11-11 04:33:00,
2013-11-10 23:48:00,31.5,25.8,30.11,SSW,202,0.0,-999.0,79,-99.99,,,0.00,Acu-Link.com,2013-11-11 04:48:00,